Weather History for Ogden, UT

Change the Weather History Date:

Saturday, February 15, 2014

  Actual Average Record
Temperature  
Mean Temperature 48 °F -  
Max Temperature 54 °F 41 °F 57 °F (2011)
Min Temperature 41 °F 23 °F 0 °F (1929)
Degree Days  
Heating Degree Days 18    
Moisture  
Dew Point 36 °F    
Average Humidity 64    
Maximum Humidity 82    
Minimum Humidity 45    
Precipitation  
Precipitation 0.00 in - - ()
Sea Level Pressure  
Sea Level Pressure 29.90 in    
Wind  
Wind Speed 6 mph (SSW)    
Max Wind Speed 14 mph    
Max Gust Speed -    
Visibility 10 miles    
Events      
Averages and records for this station are not official NWS values.
T = Trace of Precipitation, MM = Missing Value Source: NWS Daily Summary

Daily Weather History Graph

Daily Weather History Graph

Search for Another Location

Airport:

Trip Planner

Search our weather history database for the weather conditions in past years. The results will help you decide how hot, cold, wet, or windy it might be!

Date:

Astronomy

Feb. 15, 2014 Rise Set
Actual Time 7:22 AM MST 6:02 PM MST
Civil Twilight 6:54 AM MST 6:30 PM MST
Nautical Twilight 6:22 AM MST 7:02 PM MST
Astronomical Twilight 5:50 AM MST 7:34 PM MST
Moon 7:06 PM MST (2/15) 7:22 AM MST (2/15)
Length of Visible Light 11h 36m
Length of Day
10h 39m
Waxing Gibbous, 99% of the Moon is Illuminated
Feb 15
Waxing Gibbous
Feb 22
Last Quarter
Mar 1
New
Mar 8
First Quarter
Mar 16
Full

Hourly Weather History & Observations

Time (MST) Temp. Windchill Dew Point Humidity Pressure Visibility Wind Dir Wind Speed Gust Speed Precip Events Conditions
12:53 AM 54.0 °F - 35.1 °F 49% 29.88 in 10.0 mi South 13.8 mph - N/A   Overcast
1:53 AM 53.1 °F - 34.0 °F 48% 29.86 in 10.0 mi South 13.8 mph - N/A   Clear
2:53 AM 53.1 °F - 32.0 °F 45% 29.86 in 10.0 mi South 5.8 mph - N/A   Clear
3:53 AM 51.1 °F - 32.0 °F 48% 29.88 in 10.0 mi WNW 5.8 mph - N/A   Clear
4:53 AM 48.0 °F - 34.0 °F 58% 29.89 in 10.0 mi ESE 8.1 mph - N/A   Scattered Clouds
5:53 AM 48.0 °F - 34.0 °F 58% 29.91 in 10.0 mi South 5.8 mph - N/A   Mostly Cloudy
6:53 AM 42.1 °F - 35.1 °F 76% 29.95 in 10.0 mi Calm Calm - N/A   Scattered Clouds
7:53 AM 43.0 °F 40.3 °F 35.1 °F 74% 29.97 in 10.0 mi NW 4.6 mph - N/A   Mostly Cloudy
8:53 AM 42.1 °F 40.2 °F 35.1 °F 76% 29.97 in 10.0 mi WNW 3.5 mph - N/A   Overcast
9:53 AM 41.0 °F - 36.0 °F 82% 29.99 in 10.0 mi Calm Calm - N/A   Overcast
10:53 AM 44.1 °F - 36.0 °F 73% 29.99 in 10.0 mi Calm Calm - N/A   Overcast
11:53 AM 48.0 °F - 37.9 °F 68% 29.98 in 10.0 mi Calm Calm - N/A   Partly Cloudy
12:53 PM 48.9 °F - 39.0 °F 69% 29.94 in 10.0 mi Calm Calm - N/A   Mostly Cloudy
1:53 PM 54.0 °F - 34.0 °F 47% 29.91 in 10.0 mi WSW 4.6 mph - N/A   Scattered Clouds
2:53 PM 48.9 °F - 39.9 °F 71% 29.91 in 10.0 mi ESE 6.9 mph - N/A   Overcast
3:53 PM 50.0 °F - 39.9 °F 68% 29.90 in 10.0 mi Calm Calm - N/A   Mostly Cloudy
4:53 PM 48.0 °F - 39.0 °F 71% 29.90 in 10.0 mi North 3.5 mph - N/A   Scattered Clouds
5:53 PM 48.0 °F - 37.0 °F 66% 29.89 in 10.0 mi NNW 3.5 mph - N/A   Scattered Clouds
6:53 PM 50.0 °F - 36.0 °F 59% 29.88 in 10.0 mi Calm Calm - N/A   Scattered Clouds
7:53 PM 46.0 °F 43.9 °F 36.0 °F 68% 29.88 in 10.0 mi NW 4.6 mph - N/A   Partly Cloudy
8:53 PM 44.1 °F - 36.0 °F 73% 29.87 in 10.0 mi Calm Calm - N/A   Mostly Cloudy
9:53 PM 45.0 °F 41.8 °F 36.0 °F 71% 29.86 in 10.0 mi ENE 5.8 mph - N/A   Clear
10:53 PM 48.0 °F - 30.9 °F 52% 29.80 in 10.0 mi SSE 5.8 mph - N/A   Scattered Clouds
11:53 PM 46.0 °F 41.9 °F 32.0 °F 58% 29.80 in 10.0 mi NE 8.1 mph - N/A   Clear